Honolulu, HI

8:19 AM HST on June 23, 2017 (GMT -1000)
Honolulu International

Weather History for PHNL - April, 2014

Change the Weather History Date:

Tuesday, April 29, 2014

  Actual Average Record
Temperature  
Mean Temperature 76 °F 77 °F  
Max Temperature 83 °F 83 °F 89 °F (1978)
Min Temperature 69 °F 70 °F 62 °F (1995)
Degree Days  
Heating Degree Days 0 0  
Month to date heating degree days 0 0  
Since 1 July heating degree days 0 0  
Cooling Degree Days 11 12  
Month to date cooling degree days 354 320  
Year to date cooling degree days 1182 1095  
Growing Degree Days 26 (Base 50)    
Moisture  
Dew Point 61 °F    
Average Humidity 63    
Maximum Humidity 78    
Minimum Humidity 47    
Precipitation  
Precipitation 0.00 in 0.01 in 1.55 in (1954)
Month to date precipitation 0.33 0.61  
Year to date precipitation 6.62 6.93  
Snow  
Snow 0.00 in - - ()
Month to date snowfall 0.0  
Since 1 July snowfall 0.0  
Snow Depth 0.00 in    
Sea Level Pressure  
Sea Level Pressure 30.01 in    
Wind  
Wind Speed 10 mph (NNE)    
Max Wind Speed 22 mph    
Max Gust Speed 28 mph    
Visibility 10 miles    
Events      
T = Trace of Precipitation, MM = Missing Value Source: NWS Daily Summary

Daily Weather History Graph

Daily Weather History Graph

Search for Another Location

Airport or City:

Trip Planner

Search our weather history database for the weather conditions in past years. The results will help you decide how hot, cold, wet, or windy it might be!

Date:

Astronomy

Apr. 29, 2014 Rise Set
Actual Time 6:01 AM HST 6:56 PM HST
Civil Twilight 5:38 AM HST 7:19 PM HST
Nautical Twilight 5:11 AM HST 7:46 PM HST
Astronomical Twilight 4:43 AM HST 8:14 PM HST
Moon 6:28 AM HST (4/29) 7:44 PM HST (4/29)
Length of Visible Light 13h 40m
Length of Day
12h 54m
New Moon, 1% of the Moon is Illuminated
Apr 29
New Moon
May 6
First Quarter
May 14
Full
May 21
Last Quarter
May 28
New

Hourly Weather History & Observations

Time (HST) Temp. Heat Index Dew Point Humidity Pressure Visibility Wind Dir Wind Speed Gust Speed Precip Events Conditions
12:53 AM 71.1 °F - 62.1 °F 73% 30.01 in 10.0 mi NW 5.8 mph - N/A   Partly Cloudy
1:53 AM 70.0 °F - 62.1 °F 76% 30.01 in 10.0 mi NW 8.1 mph - N/A   Partly Cloudy
2:53 AM 70.0 °F - 62.1 °F 76% 29.99 in 10.0 mi NW 5.8 mph - N/A   Partly Cloudy
3:53 AM 70.0 °F - 62.1 °F 76% 29.99 in 10.0 mi NNW 6.9 mph - N/A   Partly Cloudy
4:53 AM 69.1 °F - 63.0 °F 81% 29.99 in 10.0 mi WNW 5.8 mph - N/A   Partly Cloudy
5:53 AM 71.1 °F - 62.1 °F 73% 29.99 in 10.0 mi North 6.9 mph - N/A   Scattered Clouds
6:53 AM 73.0 °F - 62.1 °F 68% 30.01 in 10.0 mi Calm Calm - N/A   Scattered Clouds
7:53 AM 75.0 °F - 62.1 °F 64% 30.04 in 10.0 mi NE 5.8 mph 16.1 mph N/A   Scattered Clouds
8:53 AM 79.0 °F - 61.0 °F 54% 30.04 in 10.0 mi NNE 10.4 mph 16.1 mph N/A   Scattered Clouds
9:53 AM 81.0 °F 81.7 °F 61.0 °F 50% 30.04 in 10.0 mi NE 10.4 mph - N/A   Scattered Clouds
10:53 AM 81.0 °F 81.9 °F 62.1 °F 52% 30.04 in 10.0 mi NE 18.4 mph 24.2 mph N/A   Scattered Clouds
11:53 AM 82.0 °F 82.4 °F 60.1 °F 47% 30.03 in 10.0 mi NE 13.8 mph 25.3 mph N/A   Scattered Clouds
12:53 PM 82.0 °F 82.7 °F 61.0 °F 49% 30.01 in 10.0 mi NNE 18.4 mph - N/A   Mostly Cloudy
1:53 PM 82.0 °F 82.4 °F 60.1 °F 47% 29.99 in 10.0 mi NNE 18.4 mph 24.2 mph N/A   Overcast
2:53 PM 81.0 °F 81.6 °F 60.1 °F 49% 29.97 in 10.0 mi NE 16.1 mph 26.5 mph N/A   Mostly Cloudy
3:53 PM 81.0 °F 81.7 °F 61.0 °F 50% 29.96 in 10.0 mi NE 16.1 mph 25.3 mph N/A   Mostly Cloudy
4:53 PM 78.1 °F - 61.0 °F 56% 29.96 in 10.0 mi NE 12.7 mph 24.2 mph N/A   Mostly Cloudy
5:53 PM 77.0 °F - 61.0 °F 58% 29.97 in 10.0 mi NE 12.7 mph 20.7 mph N/A   Mostly Cloudy
6:53 PM 75.0 °F - 60.1 °F 60% 29.99 in 10.0 mi NE 12.7 mph 20.7 mph N/A   Scattered Clouds
7:53 PM 73.9 °F - 60.1 °F 62% 30.01 in 10.0 mi NNE 5.8 mph - N/A   Partly Cloudy
8:53 PM 73.9 °F - 60.1 °F 62% 30.03 in 10.0 mi Calm Calm - N/A   Partly Cloudy
9:53 PM 73.9 °F - 61.0 °F 64% 30.04 in 10.0 mi North 5.8 mph - N/A   Scattered Clouds
10:53 PM 73.0 °F - 61.0 °F 66% 30.05 in 10.0 mi NNE 10.4 mph 16.1 mph N/A   Scattered Clouds
11:53 PM 73.0 °F - 62.1 °F 68% 30.04 in 10.0 mi NE 5.8 mph - N/A   Scattered Clouds